Current Version              Previous Version:    01  02  03  04  05  06  07  08  09  10  11  12  13  14  15  16  17  18  19  20  21  22  23  24  25  26  27  28  29  30  
   31  32  33  34  35  36  37  38  39  40  41  42  43  44  45  46  47  48  49  50  51  52  53  54  55  56  57  58  59  60  

[Printable]
960
ASUS44 KFWD 010103
RWRTX
NORTH TEXAS HOURLY WEATHER ROUNDUP
NATIONAL WEATHER SERVICE FORT WORTH TX
800 PM CDT TUE SEP 30 2014

NOTE: "FAIR" INDICATES FEW OR NO CLOUDS BELOW 12,000 FEET WITH NO
SIGNIFICANT WEATHER AND/OR OBSTRUCTIONS TO VISIBILITY.

TXZ118-119-010200-
DALLAS/FORT WORTH METROPLEX

CITY           SKY/WX    TMP DP  RH WIND       PRES   REMARKS
DFW AIRPORT    PTCLDY    85  64  49 SE8       29.75S
DALLAS LOVE    PTCLDY    87  64  46 SE13      29.75S
FTW MEACHAM    CLEAR     86  61  42 SE13      29.74S
DAL-EXECUTIVE  CLEAR     84  64  50 SE9       29.76R
FTW-ALLIANCE   PTCLDY    84  61  45 SE9       29.74S
FTW-NAS-JRB    PTCLDY    87  57  35 S7        29.79R
FTW-SPINKS     CLEAR     82  59  46 S3        29.77S
ARLINGTON      CLEAR     84  62  47 SE7       29.76R
ADDISON        PTCLDY    86  63  45 SE7       29.76R
MESQUITE       PTCLDY    82  64  54 SE3       29.77S
LANCASTER      CLEAR     83  61  48 SE5       29.77S
$$

TXZ091>094-102>105-117-120-121-131>134-010200-
NORTH CENTRAL TEXAS

CITY           SKY/WX    TMP DP  RH WIND       PRES   REMARKS
SHRMAN/DENISON CLEAR     80  66  62 E8        29.78S
GAINESVILLE    CLEAR     79  64  59 SE7       29.78S
BOWIE          CLEAR     80  57  44 SE5       29.75S
BRIDGEPORT     CLEAR     82  50  33 S6        29.76S
DECATUR        CLEAR     82  55  38 S7        29.77R
DENTON         CLEAR     83  63  50 SE8       29.75S
MCKINNEY       PTCLDY    81  64  56 SE8       29.76S
GREENVILLE     CLEAR     79  63  57 SE5       29.78S
ROCKWALL       CLEAR     82  65  57 SE3       29.76S
TERRELL        CLEAR     84  66  54 SE5       29.78R
WAXAHACHIE     PTCLDY    82  64  55 SE3       29.78S
CLEBURNE       CLEAR     82  61  47 SE8       29.78S
GRANBURY       CLEAR     84  55  37 SE5       29.77S
$$

TXZ083>090-098>101-113>116-127>130-139>142-154-155-010200-
WESTERN NORTH TEXAS

CITY           SKY/WX    TMP DP  RH WIND       PRES   REMARKS
WICHITA FALLS  PTCLDY    83  55  38 SE10      29.71R
WF-KICKAPOO    CLEAR     83  52  34 SE9       29.73R
VERNON         CLEAR     85  53  32 S7        29.72R
ABILENE        CLEAR     84  55  36 S9        29.75S
ABILENE-DYESS  CLEAR     84  59  42 SE13      29.74S
BRECKENRIDGE   CLEAR     85  53  33 SE8       29.74S
MINERAL WELLS  CLEAR     82  54  37 SE7       29.74S
STEPHENVILLE   CLEAR     81  55  40 SE5       29.80S
COMANCHE       CLEAR     82  55  39 S9        29.78S
BROWNWOOD      PTCLDY    81  59  47 SE9       29.77S
COLEMAN        CLEAR     83  56  39 SE10      29.77S
BRADY          CLEAR     81  61  50 SE6       29.79S HAZE
$$

TXZ143>147-156>162-174-175-010200-
CENTRAL TEXAS

CITY           SKY/WX    TMP DP  RH WIND       PRES   REMARKS
WACO           CLEAR     83  65  54 S8        29.77R
WACO-MCGREGOR  CLEAR     82  61  47 SE7       29.78S
HILLSBORO      CLEAR     83  59  44 SE6       29.77S
CORSICANA      CLEAR     83  68  60 SE9       29.79R
MEXIA          CLEAR     81  69  68 SE5       29.78R
HEARNE         CLEAR     81  70  68 SE3       29.78R
CAMERON        CLEAR     82  69  64 S3        29.78R
TEMPLE         CLEAR     81  63  54 SE7       29.78S
KILLEEN        PTCLDY    84  64  51 SE10      29.78S
KILLEEN-SKYLRK CLEAR     82  63  51 SE8       29.79R
HAMILTON       CLEAR     82  58  44 SE7       29.80S
LAMPASAS       CLEAR     80  65  59 CALM      29.79S
$$

TXZ095>097-106>112-122>126-135>138-148>153-164>167-010200-
EAST TEXAS

CITY           SKY/WX    TMP DP  RH WIND       PRES   REMARKS
PARIS          PTCLDY    77  63  61 E9        29.80S
SULPHUR SPRNGS CLEAR     82  65  56 SE6       29.81R
MOUNT PLEASANT PTCLDY    80  66  63 E5        29.81R
GILMER         CLEAR     81  70  69 CALM      29.81S
MINEOLA        CLEAR     81  70  69 CALM      29.80R
TYLER          CLEAR     81  68  64 SE6       29.79S
LONGVIEW       PTCLDY    82  67  60 E5        29.79S
MARSHALL       CLEAR     79  70  74 CALM      29.82S
ATHENS         CLEAR     81  68  65 SE3       29.78S
PALESTINE      CLEAR     81  71  70 CALM      29.80S
HENDERSON      MOCLDY    78  67  70 CALM      29.81R
NACOGDOCHES    PTCLDY    79  70  73 CALM      29.81R
LUFKIN         PTCLDY    81  72  74 E3        29.80R
$$

SUPPLEMENTAL OBSERVATIONS (CENTRAL)

CITY           SKY/WX    TMP DP  RH WIND       PRES   REMARKS
$$

SUPPLEMENTAL OBSERVATIONS (WEST)

CITY           SKY/WX    TMP DP  RH WIND       PRES   REMARKS
$$

SUPPLEMENTAL OBSERVATIONS (EAST)

CITY           SKY/WX    TMP DP  RH WIND       PRES   REMARKS
$$

SUPPLEMENTAL OBSERVATIONS ARE A COLLECTION OF AUTOMATED INSTRUMENTS
THAT ARE MAINTAINED BY A VARIETY OF FEDERAL AND STATE AGENCIES.
CERTAIN ELEMENTS...SUCH AS HUMIDITY VALUES AND SUSTAINED WIND
SPEEDS...MAY BE APPROXIMATED.